GFSNGP_sfc_temp_099.txt.gz
Temp
44 47 46 46 46 48 40 45 41 45 48 54 54 52 61 64 66 66 66 67 69 69 70 71 67 67 66 65 65 64 64 62 60 61 62 61 61 62 62 63 64 64 64 64
38 45 47 42 47 48 48 49 48 49 48 58 61 63 61 60 60 60 61 62 63 64 65 67 70 68 67 65 65 66 64 63 63 62 62 61 61 60 61 61 63 61 62 62
32 43 41 33 42 47 48 51 48 42 50 59 59 59 56 55 57 58 59 59 60 60 62 64 64 70 68 67 67 66 66 64 64 63 62 62 62 62 61 57 58 48 44 43
30 35 23 42 54 53 49 52 51 51 51 53 54 57 57 58 56 58 59 59 59 58 59 61 64 67 66 69 67 66 65 66 65 64 63 63 61 61 56 48 44 41 38 38
28 27 37 44 50 48 46 43 51 50 51 53 56 56 54 59 59 58 56 56 57 57 59 60 58 59 64 65 66 66 65 65 65 64 63 61 52 44 42 40 37 36 36 35
29 25 23 42 49 55 53 36 52 51 50 50 51 39 46 57 59 57 55 55 54 55 58 55 53 55 55 54 58 59 63 62 59 60 59 46 42 39 38 37 34 34 33 34
28 27 34 49 50 55 35 37 51 53 50 50 46 48 53 57 55 55 53 52 53 53 52 50 51 50 45 45 45 46 45 46 45 44 42 40 37 37 36 34 33 32 32 32
30 25 25 54 52 42 47 49 51 51 51 49 50 52 54 55 50 49 47 48 48 48 48 47 47 45 41 40 42 44 43 42 41 41 40 39 36 34 34 33 32 31 30 30
35 34 47 52 50 52 53 51 50 50 50 51 49 50 51 48 46 44 42 42 44 44 45 44 44 42 40 40 41 40 39 38 37 38 37 37 35 33 32 32 31 30 29 28
39 45 48 51 53 54 56 55 53 52 51 51 47 47 46 44 41 39 38 39 40 41 41 39 40 40 40 40 39 38 36 36 35 34 34 34 34 33 33 31 30 29 29 28
39 44 45 48 52 54 55 54 53 52 50 48 47 43 42 39 39 38 35 35 35 34 37 37 38 37 38 38 37 34 33 32 31 30 30 29 29 31 30 30 30 27 26 25
36 45 43 45 50 53 53 50 50 48 46 42 42 39 39 36 36 34 33 32 32 32 33 34 36 36 36 36 35 32 30 30 28 28 27 27 26 26 29 28 29 29 28 26
42 49 46 53 55 53 50 48 47 44 43 39 39 38 36 33 32 31 30 30 29 29 30 31 32 32 33 33 32 30 27 27 27 26 25 24 24 23 20 24 27 27 28 28
51 51 48 50 47 50 51 50 47 43 40 37 36 35 33 29 28 27 25 27 27 28 28 30 31 31 32 32 31 29 28 28 26 25 24 23 22 21 21 19 18 20 25 26
48 49 48 49 49 48 48 48 46 41 37 33 32 31 30 28 26 26 26 27 26 26 26 27 26 27 30 31 30 30 28 27 27 26 25 23 22 21 21 20 20 20 21 22
45 44 44 42 41 42 42 42 40 41 34 30 27 28 27 26 26 25 26 27 25 23 25 25 25 26 28 29 28 27 27 27 27 26 25 23 22 21 20 19 18 17 18 18
36 35 36 35 35 36 37 36 36 37 32 28 26 27 26 24 23 23 23 24 24 24 24 25 25 26 26 27 26 26 25 25 25 24 23 22 20 18 17 16 15 15 15 17
36 35 35 33 32 33 33 33 32 32 29 28 26 23 21 21 20 21 21 22 22 22 23 24 25 25 26 26 26 25 24 24 24 23 23 20 19 17 16 15 15 14 14 14
33 32 31 30 29 29 29 28 27 26 24 23 22 20 21 21 21 20 21 20 19 19 20 23 24 24 24 24 24 23 22 21 21 21 20 19 17 17 16 15 14 13 13 12
29 29 28 27 26 25 24 25 24 23 23 22 21 19 17 18 19 18 19 17 19 20 22 23 23 23 24 24 24 22 20 18 17 16 15 15 14 13 13 12 12 10 8 7
24 24 23 23 21 20 20 21 21 20 19 19 18 17 16 17 17 17 16 15 18 21 22 21 22 22 23 22 22 20 19 17 16 15 14 12 12 11 10 9 9 7 5 5
20 16 15 17 16 15 17 18 18 16 16 16 17 17 15 14 14 14 15 15 17 18 19 19 20 20 21 21 20 18 17 16 15 14 13 11 9 7 5 5 5 3 1 1
19 16 15 15 15 15 16 16 16 16 16 15 15 15 14 14 14 12 10 15 17 17 17 17 18 18 18 17 17 16 15 14 13 12 10 9 6 3 2 3 1 -1 -4 -2
13 15 15 15 15 15 13 14 15 15 14 15 14 14 13 10 11 13 14 14 14 15 15 16 17 17 16 15 14 13 12 12 11 11 10 9 6 5 2 0 2 -8 -10 -6
16 15 16 15 15 14 14 14 14 13 13 13 13 14 14 14 11 12 13 13 15 14 14 15 14 13 12 11 10 10 11 11 11 9 7 6 6 3 -3 -2 -8 -8 -7 -4
19 18 18 18 18 18 16 15 13 12 12 10 11 12 12 13 13 13 13 13 13 13 12 12 12 13 12 12 11 9 9 9 8 7 5 4 3 -1 -6 -6 -6 -6 -11 -13
19 19 18 17 18 17 16 15 13 12 12 11 11 12 13 13 12 12 12 12 11 10 10 11 11 11 11 10 8 6 5 4 3 4 1 1 0 -6 -8 -11 -12 -13 -13 -12

GFSNGP_sfc_temp_102.txt.gz
Temp
40 43 45 41 43 42 38 38 34 42 45 48 53 56 54 56 59 57 59 59 59 59 56 59 60 60 60 60 61 60 59 59 59 60 61 60 59 58 59 59 59 58 59 59
33 42 43 41 44 44 44 41 42 45 45 55 57 55 52 55 57 56 56 58 58 59 60 59 60 60 62 61 61 60 59 58 59 59 60 60 59 58 58 58 59 58 59 58
29 38 39 31 39 44 46 47 45 40 45 54 51 52 52 51 54 55 56 57 56 56 57 58 56 57 58 61 61 61 60 60 59 59 59 59 59 58 58 57 58 59 55 50
26 32 23 41 51 49 45 46 47 47 49 51 52 53 54 54 52 52 55 54 54 54 54 53 53 54 56 61 63 61 61 61 60 59 59 59 58 58 57 53 48 43 41 39
23 24 34 42 46 44 43 41 48 46 49 51 53 52 50 55 54 53 52 52 52 52 53 51 50 51 51 51 54 62 62 61 61 60 59 59 57 56 44 42 40 38 37 36
25 23 20 39 46 50 49 34 49 49 48 48 50 37 43 51 53 50 50 49 49 50 50 48 47 49 47 46 46 46 49 57 57 58 58 56 46 42 40 39 36 35 34 34
23 22 31 44 50 51 34 35 49 50 48 48 45 46 50 51 48 48 46 46 47 47 46 45 46 46 43 43 42 44 45 48 47 48 46 43 40 38 36 34 33 32 32 32
25 22 23 49 49 40 44 46 48 48 48 47 48 49 48 46 44 42 41 42 44 43 44 42 43 44 41 40 41 42 41 41 42 43 41 39 37 35 35 34 32 31 31 31
32 32 45 48 47 51 52 49 46 47 48 48 47 46 46 42 40 39 38 39 40 40 41 40 41 41 39 39 40 39 38 37 37 37 37 36 34 33 32 33 32 30 30 28
36 43 43 44 49 53 54 48 48 49 47 47 43 43 41 39 37 35 34 34 36 37 38 37 38 38 38 38 38 37 35 35 35 34 34 35 34 34 32 31 30 29 28 27
38 42 45 47 49 48 50 51 48 45 44 43 41 38 38 35 34 33 32 34 34 34 34 36 37 36 37 36 35 32 31 30 30 29 29 29 29 29 29 30 29 27 27 27
33 41 40 44 48 51 48 47 46 43 39 39 39 39 37 33 33 31 29 31 31 32 32 33 35 34 34 35 34 31 29 29 28 28 28 28 28 27 30 29 30 29 29 28
38 44 44 48 48 50 46 45 43 41 40 36 36 33 32 30 29 29 28 28 28 28 30 31 31 30 31 31 30 28 26 27 26 26 26 25 26 26 24 27 29 29 29 29
43 45 40 42 41 45 46 43 40 37 36 34 32 31 29 26 27 26 25 26 27 27 26 26 27 28 30 30 28 27 27 27 26 25 24 23 23 23 23 22 21 23 28 27
42 43 42 43 42 40 41 42 40 35 32 29 29 28 28 27 26 26 26 27 27 26 25 26 25 26 29 29 28 26 26 24 24 23 22 22 21 21 21 20 20 19 21 22
40 38 38 35 35 37 37 35 34 33 30 28 26 26 26 26 26 25 26 26 24 23 23 24 24 26 28 28 27 26 25 25 24 23 22 21 21 21 20 19 19 17 16 15
32 30 31 30 31 33 34 35 35 33 30 29 28 27 26 24 23 23 23 23 23 23 23 23 23 26 26 26 26 25 24 23 23 22 20 19 19 18 18 18 17 16 15 15
32 31 30 28 28 30 30 30 30 30 28 27 26 24 22 21 20 20 20 21 21 21 22 22 23 24 24 25 25 24 23 23 21 19 19 17 17 17 17 16 15 14 13 13
30 29 28 26 26 27 26 26 25 25 24 23 22 20 21 20 20 20 20 20 19 19 20 23 24 23 23 23 23 22 21 20 19 19 18 17 16 16 14 14 13 12 12 10
26 26 26 24 23 23 22 23 24 23 23 21 20 18 17 18 18 18 19 17 19 20 23 23 22 22 21 21 21 20 19 18 17 17 16 15 14 12 12 10 10 8 7 6
21 22 21 20 18 18 17 19 18 19 19 19 17 15 14 16 17 17 16 14 17 21 21 21 21 20 21 20 20 19 17 16 16 15 13 12 11 9 8 7 6 5 5 5
15 13 13 14 14 13 16 16 16 15 15 14 14 13 13 12 13 14 15 15 18 19 19 19 19 19 19 19 19 17 17 16 14 13 12 12 10 8 6 5 4 2 1 -2
13 14 12 10 10 10 12 12 12 12 11 11 12 13 12 13 14 12 11 16 17 17 17 17 17 17 17 16 15 14 14 13 12 11 9 8 7 7 4 3 -2 -1 -4 -6
12 13 12 13 14 12 9 11 13 13 12 12 12 13 12 11 11 14 15 15 16 16 15 15 16 16 15 14 13 12 12 11 10 9 8 7 5 4 3 -1 -3 -7 -6 -6
13 10 10 10 11 11 12 12 12 12 11 11 12 13 13 14 12 12 14 14 15 13 13 13 13 12 12 11 11 11 11 10 9 8 7 5 3 1 -2 -2 -6 -6 -8 -11
17 17 14 12 14 13 13 13 10 11 11 10 10 11 12 13 13 13 12 12 12 12 12 12 12 12 11 10 9 8 9 8 7 6 5 2 1 -1 -3 -5 -6 -8 -13 -15
15 14 14 15 16 15 14 13 11 10 11 10 10 12 12 12 12 12 11 10 10 10 10 10 11 11 9 8 7 6 6 5 4 3 1 -2 -5 -9 -9 -11 -11 -12 -14 -13

GFSNGP_sfc_temp_105.txt.gz
Temp
36 41 41 39 39 41 38 36 33 38 41 47 48 49 52 55 53 54 55 57 56 55 56 57 57 58 59 58 58 57 56 56 56 57 57 59 56 55 56 56 57 56 56 56
31 39 41 38 40 43 43 41 40 40 43 51 50 52 52 53 53 52 52 54 56 56 56 55 55 55 57 59 58 59 57 56 58 58 57 57 57 56 55 55 55 56 55 55
27 36 36 32 38 42 42 44 43 36 43 48 48 50 50 51 52 52 52 53 53 53 53 52 52 53 53 55 59 59 58 59 58 58 58 57 58 58 56 54 55 54 53 53
28 32 22 39 48 47 43 44 47 46 47 49 49 50 51 53 52 51 51 51 51 51 52 51 50 51 52 53 55 59 59 59 59 58 58 59 57 57 56 55 54 51 45 43
26 27 33 39 43 41 40 40 46 46 46 48 50 49 47 53 51 50 49 49 49 50 50 47 46 47 48 49 50 50 58 59 59 59 58 58 57 55 53 47 44 41 39 38
26 22 17 35 45 48 47 33 48 47 45 48 49 39 43 49 49 47 46 46 46 46 47 44 43 45 45 45 45 45 46 50 58 59 57 56 56 47 41 41 37 36 34 35
23 20 29 41 47 48 33 36 47 48 47 46 42 42 45 46 44 44 43 42 43 44 43 41 44 46 44 43 40 42 44 45 46 54 56 51 45 43 39 36 34 33 32 32
23 21 21 46 46 38 42 47 49 47 46 45 44 44 43 42 39 38 37 38 39 41 40 40 42 42 40 38 40 41 41 40 40 41 42 44 41 37 36 34 32 31 30 30
30 29 41 43 43 47 48 46 45 46 47 46 43 40 40 37 37 36 35 36 38 38 39 39 39 39 37 37 39 38 37 36 36 36 37 37 37 36 34 34 32 31 30 28
34 38 40 43 46 47 48 47 46 46 45 43 39 39 37 36 35 34 34 35 36 36 35 36 37 37 36 36 37 36 34 34 34 33 33 34 34 34 33 32 31 30 28 27
36 40 42 44 44 46 47 46 43 42 41 40 39 38 37 35 33 32 32 33 33 33 33 33 35 35 36 35 34 31 31 30 29 30 29 29 29 30 30 30 31 29 29 29
32 38 40 42 43 48 46 44 42 40 37 37 37 34 34 32 31 30 29 30 30 31 31 32 32 32 33 34 33 31 29 29 29 29 28 28 28 27 30 30 31 31 31 30
34 41 41 41 43 46 42 41 40 37 37 33 32 31 30 28 25 26 25 26 27 26 27 28 29 28 29 29 29 28 26 27 27 28 28 28 27 26 24 28 30 31 31 31
41 38 35 36 34 39 41 39 37 34 33 32 30 30 28 24 22 25 24 26 25 22 21 25 27 26 26 27 27 27 25 25 25 25 25 25 25 25 25 23 22 23 28 28
39 40 38 39 39 38 38 38 35 32 30 28 28 28 27 25 26 25 22 18 18 20 19 21 23 25 26 26 24 24 23 22 22 22 22 22 23 22 22 21 21 21 21 22
38 33 35 32 32 34 35 33 32 31 29 27 26 26 25 24 25 25 25 24 21 20 20 21 22 25 25 26 24 24 23 23 23 22 22 21 21 20 19 18 17 16 15 15
30 28 28 27 28 30 32 32 32 32 30 28 27 26 24 23 21 21 21 21 20 20 21 20 20 24 24 25 24 23 22 21 21 20 20 19 19 19 18 17 15 14 12 14
30 30 27 26 26 28 28 28 28 28 27 26 24 18 14 13 15 19 20 21 21 20 21 22 23 23 24 24 24 23 21 20 20 18 19 18 18 18 16 15 14 12 11 11
27 25 27 25 24 25 24 23 24 25 23 23 22 19 18 16 18 18 20 19 19 18 19 23 24 23 23 23 23 22 20 18 18 17 17 16 16 16 14 13 12 11 11 9
24 24 23 22 21 20 18 19 20 19 21 21 19 18 16 15 16 16 16 15 18 19 22 21 21 21 20 21 21 20 19 18 17 16 15 14 13 11 11 11 10 8 7 5
19 20 19 18 16 16 15 17 15 16 16 17 16 15 14 13 13 13 14 14 17 20 21 20 20 19 20 19 19 18 17 16 15 14 13 11 11 10 9 8 7 7 6 4
11 12 10 11 12 11 13 14 15 14 13 12 12 12 11 12 12 13 14 14 17 17 18 18 18 18 18 18 18 16 15 14 13 13 12 11 10 8 7 6 5 4 1 -1
11 12 10 9 8 8 10 10 10 10 10 9 10 10 11 12 14 12 11 16 17 16 16 15 15 15 15 15 14 13 12 12 10 10 9 9 8 7 6 4 3 1 -2 -3
8 9 8 9 10 10 6 9 10 10 10 11 10 11 12 11 12 15 15 14 14 14 14 14 14 14 14 13 12 11 11 10 9 8 8 7 6 5 3 0 -1 -3 -4 -5
10 8 7 8 9 8 8 9 9 10 10 10 11 12 13 14 12 13 13 13 14 12 12 12 12 12 11 11 11 10 9 9 8 7 6 5 4 3 2 0 -3 -4 -6 -6
16 12 8 9 9 8 9 9 7 7 9 8 9 11 12 12 13 12 12 12 12 12 11 11 11 10 9 9 9 9 9 8 7 6 5 3 1 -0 -2 -2 -3 -4 -8 -12
12 12 12 12 13 11 8 6 5 7 9 8 9 11 12 12 11 11 10 10 10 10 10 10 10 9 8 8 7 7 7 6 6 5 3 2 0 -1 -1 -4 -7 -9 -13 -13

GFSNGP_sfc_temp_108.txt.gz
Temp
35 38 39 38 34 37 35 35 34 34 36 41 47 45 46 51 52 53 53 52 53 53 52 53 54 56 57 56 56 56 55 55 56 57 57 57 56 55 56 56 57 57 57 57
30 38 38 34 36 34 39 38 36 36 36 44 47 48 48 49 51 51 52 52 51 52 52 51 51 52 53 54 56 56 56 55 56 56 56 57 56 55 55 55 55 55 55 56
27 33 33 27 34 38 40 43 39 34 40 46 44 47 47 48 49 50 51 51 51 51 50 50 49 50 49 51 54 56 56 56 56 56 56 56 56 55 55 54 55 54 53 52
28 30 22 38 44 43 41 43 43 44 45 46 47 48 48 50 49 48 49 48 48 48 48 47 46 46 47 50 51 51 56 58 57 57 56 56 56 55 54 54 53 53 51 50
24 27 32 35 43 41 38 39 44 45 43 45 47 48 45 48 47 45 45 45 45 46 45 44 44 46 48 47 47 48 47 52 56 57 57 56 55 55 54 53 50 47 45 43
27 24 20 35 43 46 44 31 45 46 46 45 45 37 42 44 45 43 42 42 42 44 44 42 43 45 46 44 43 42 43 44 47 51 56 55 55 54 46 48 40 38 35 35
24 23 31 39 44 46 31 33 45 48 45 45 43 42 44 43 40 40 39 38 40 43 40 40 41 42 41 40 38 40 41 42 42 43 51 56 54 45 42 38 35 33 32 33
22 19 21 43 44 36 40 43 46 47 45 43 43 41 40 39 37 35 35 38 39 40 40 39 38 39 37 35 38 40 39 38 38 38 39 43 44 40 37 36 33 31 31 30
29 28 39 41 41 45 46 45 43 45 45 44 43 40 39 37 36 35 36 36 36 35 37 37 37 37 34 35 36 37 36 35 35 36 36 37 36 36 35 35 33 31 30 29
31 36 37 39 42 44 45 43 43 44 43 41 37 37 36 36 35 34 33 32 33 34 34 33 35 35 34 35 35 33 32 31 31 31 32 33 33 33 33 33 32 31 29 28
33 37 39 41 41 43 44 43 41 41 41 39 37 36 36 34 33 31 30 32 33 32 31 31 32 32 33 34 34 31 30 30 30 30 30 29 30 30 30 30 32 30 29 29
31 37 38 37 41 44 41 40 41 38 35 35 35 34 33 30 30 29 29 30 29 29 29 29 30 29 30 31 31 30 29 29 29 29 29 29 29 28 32 31 32 31 31 30
33 37 36 37 37 41 38 38 37 36 35 31 31 30 30 27 26 27 27 27 26 25 26 29 28 27 27 27 28 28 26 27 28 28 28 27 27 28 26 29 31 31 31 30
36 35 33 33 31 34 36 37 35 33 31 30 29 29 27 25 27 26 24 25 24 20 22 25 26 22 22 21 22 22 23 24 24 25 25 25 25 25 25 24 23 24 28 28
34 34 32 33 33 35 36 37 33 31 30 28 28 27 27 25 25 25 25 23 20 21 20 24 24 21 20 19 21 21 21 22 22 22 23 23 23 23 22 21 20 20 20 21
36 32 32 30 30 32 33 32 33 31 30 28 26 25 24 24 23 23 23 22 21 19 18 20 22 21 20 18 21 22 22 22 22 22 22 21 20 19 18 17 16 15 14 14
28 27 26 25 26 28 28 29 29 29 29 28 26 26 23 21 20 19 20 19 17 15 16 16 20 21 19 20 20 19 20 20 20 20 20 19 19 17 16 15 13 12 11 13
27 27 27 25 24 25 25 26 27 27 25 25 23 21 19 16 14 14 14 20 18 16 18 19 21 22 22 22 22 21 20 20 20 19 19 18 17 17 15 14 13 11 10 11
26 24 24 24 22 23 21 21 21 23 23 23 21 18 18 18 17 15 15 13 11 13 18 21 23 22 22 22 21 20 19 18 17 17 17 16 15 15 13 12 11 10 10 9
22 22 21 20 18 18 16 17 18 17 19 20 19 18 16 16 16 13 14 13 15 17 20 20 20 20 19 20 20 19 18 17 16 15 15 13 12 11 10 10 9 7 6 6
15 17 16 16 13 13 13 15 15 14 13 13 14 14 13 13 13 13 13 13 15 19 19 19 19 18 18 18 18 17 15 14 13 12 11 10 10 9 8 8 7 6 4 4
9 9 7 8 9 8 11 11 12 10 10 9 10 10 11 11 12 13 14 13 16 16 17 16 16 16 17 17 16 14 13 13 12 11 10 9 8 7 7 7 5 4 4 2
10 11 9 7 6 7 8 9 9 9 9 9 9 9 10 11 12 11 10 15 16 15 15 14 14 14 13 12 12 11 10 9 9 8 8 7 7 6 5 5 4 3 2 1
8 9 6 8 9 9 5 6 8 8 7 9 9 10 11 10 11 14 14 13 12 12 12 12 13 13 12 11 10 9 8 8 8 7 7 6 5 4 4 3 1 -0 -1 -0
9 6 6 6 7 6 5 5 5 4 6 7 9 11 12 13 10 11 12 12 14 11 11 11 11 11 10 9 9 8 8 8 7 7 6 5 4 3 3 3 1 0 -1 -0
12 9 6 7 8 8 7 6 5 4 4 4 7 6 9 11 11 11 11 11 11 11 10 9 9 8 8 8 8 8 8 7 7 6 6 4 4 3 2 2 0 -1 -3 -4
9 11 10 8 9 8 6 4 3 5 6 4 5 8 9 9 9 10 10 10 10 9 9 9 8 8 7 7 7 6 6 6 6 5 4 3 2 1 1 -0 -1 -2 -5 -7

GFSNGP_sfc_temp_111.txt.gz
Temp
34 39 40 38 36 36 36 40 39 45 44 49 51 52 53 54 55 55 56 56 56 53 51 51 50 51 53 56 59 62 62 61 59 60 61 59 58 58 58 58 58 58 57 57
30 37 39 36 38 38 40 41 41 42 42 48 52 54 53 53 54 53 52 52 52 52 49 48 47 47 51 52 53 57 60 60 61 60 60 60 58 57 57 57 57 57 56 56
29 36 35 32 36 38 40 42 43 40 45 49 47 49 50 51 52 51 50 51 50 50 47 46 44 46 46 51 54 54 57 59 59 59 60 59 60 59 57 57 57 56 56 56
29 33 23 40 46 46 40 41 47 46 47 49 48 50 50 53 50 48 48 47 47 47 45 45 46 45 48 51 50 51 50 54 58 59 59 60 60 58 59 59 57 55 54 54
27 28 35 39 43 42 39 40 46 46 47 49 50 51 45 48 47 45 45 45 46 47 45 45 44 46 48 46 46 47 45 46 47 49 57 58 58 57 58 56 56 56 54 52
30 25 23 37 45 49 47 37 47 48 46 47 48 39 44 43 45 43 43 43 44 44 45 43 42 44 43 42 42 41 41 43 44 45 46 55 57 57 55 55 52 45 42 45
28 26 33 43 46 48 35 37 47 47 46 46 41 43 43 44 41 42 42 42 43 44 42 41 41 43 40 39 37 39 40 41 40 41 43 44 54 52 49 42 39 36 35 36
29 25 23 45 46 38 42 46 49 49 48 45 42 41 41 40 39 39 39 39 40 40 39 40 39 40 38 36 37 38 38 38 38 37 38 40 41 40 39 38 35 33 32 32
32 33 40 44 42 46 46 46 46 47 47 45 42 40 40 38 38 37 37 36 38 38 37 37 37 36 34 35 36 36 35 34 34 35 35 35 36 36 35 34 33 32 30 29
32 39 40 40 45 44 45 43 45 46 45 43 39 39 38 37 36 35 35 35 36 36 35 33 34 34 34 35 36 34 33 32 32 32 32 33 33 34 34 33 32 31 29 28
33 39 39 37 41 44 43 42 42 41 41 40 39 38 37 35 34 33 33 34 34 32 32 31 33 32 33 34 34 33 32 32 31 31 31 30 30 31 31 32 33 30 29 29
29 34 35 32 36 39 38 39 40 38 36 37 38 35 34 32 32 32 32 32 31 30 30 30 31 30 30 32 34 32 31 30 30 30 30 30 30 29 32 32 32 32 31 29
31 35 33 36 35 36 35 34 35 33 33 33 33 33 32 30 29 29 29 28 27 26 28 29 28 27 27 28 29 29 29 30 29 29 29 29 29 28 26 28 31 31 30 30
33 33 31 31 30 32 35 33 32 33 33 32 32 32 30 29 28 26 25 24 24 23 25 26 24 22 23 25 25 25 27 27 28 27 26 26 26 26 26 25 24 24 28 28
33 33 31 31 31 32 33 35 33 31 30 29 30 30 30 28 26 25 25 23 24 21 23 23 22 22 23 23 24 25 27 27 27 27 26 25 24 23 22 21 20 21 21 23
33 32 32 29 30 31 30 30 31 30 30 28 27 26 26 26 25 25 25 25 23 20 19 21 22 22 22 23 25 26 25 25 26 27 26 25 24 23 22 21 19 18 18 18
28 26 27 26 26 27 27 28 28 28 28 28 27 26 25 23 22 21 21 22 21 20 21 22 22 22 23 22 25 25 26 26 25 26 25 24 23 21 21 19 17 16 15 16
28 27 27 25 24 25 25 25 26 27 26 25 24 22 21 20 19 18 19 19 19 20 21 23 24 24 24 25 26 26 26 26 25 24 24 23 22 21 20 18 17 15 14 14
25 24 24 23 22 23 21 21 21 22 23 23 21 20 20 20 20 19 19 18 19 20 20 23 24 25 24 23 25 25 25 24 23 22 21 19 19 19 18 18 16 15 14 13
22 22 21 19 18 17 16 17 19 18 18 21 20 19 18 17 18 18 18 17 19 21 23 22 23 22 22 22 23 23 22 22 21 20 20 19 18 16 16 15 14 13 12 12
16 17 15 15 14 13 13 15 14 15 14 14 16 15 15 16 16 17 18 18 18 20 21 21 22 22 22 21 22 21 20 19 19 18 17 16 16 16 15 14 13 12 11 10
13 11 10 11 11 10 11 12 13 11 12 12 12 13 14 14 15 16 16 17 19 18 20 20 20 18 19 19 20 19 19 18 17 17 16 16 15 14 13 13 12 11 11 10
13 13 11 9 9 9 9 10 9 10 10 11 11 13 14 16 17 17 15 17 19 17 19 18 16 15 16 17 17 17 16 16 15 15 15 14 14 13 13 12 11 11 10 9
12 12 11 11 12 11 9 10 11 11 10 13 12 13 15 15 15 17 17 15 14 15 16 16 15 14 15 16 15 15 15 15 14 14 13 12 12 12 11 10 9 9 8 8
13 12 11 11 11 12 11 11 11 11 11 12 12 14 15 16 15 15 16 15 15 15 14 13 13 14 15 15 14 14 14 14 14 14 13 12 11 11 11 10 9 9 8 8
15 14 13 12 13 14 14 14 12 12 12 11 12 13 14 14 15 15 14 14 14 13 13 13 13 13 13 13 12 12 12 12 13 12 11 11 11 10 9 9 8 8 7 6
14 13 14 13 14 14 14 13 12 10 11 11 11 13 13 14 13 13 12 13 13 12 12 12 12 12 12 12 11 11 11 10 10 10 10 10 10 9 8 8 8 7 6 5

GFSNGP_sfc_temp_114.txt.gz
Temp
36 40 45 41 39 38 41 48 44 50 53 58 60 60 61 63 63 63 63 61 61 59 55 51 49 49 50 51 53 60 61 62 63 65 67 65 65 66 65 63 61 60 59 58
34 38 44 41 42 44 44 44 50 52 53 65 66 64 61 61 62 60 59 59 59 58 57 51 46 48 49 49 52 54 56 62 64 62 63 64 64 63 63 64 65 65 62 57
32 41 39 36 41 45 46 49 49 45 54 58 59 58 58 59 59 58 56 56 56 55 54 54 49 46 47 47 49 51 52 57 61 61 60 61 64 63 62 61 63 62 60 59
32 38 23 41 50 50 47 49 52 53 54 52 50 49 51 55 56 55 55 55 55 55 54 54 55 49 49 46 47 47 48 48 49 54 59 62 61 62 63 62 60 59 60 60
29 32 39 40 45 43 42 45 50 52 52 49 51 53 47 53 54 52 52 54 54 54 53 53 52 52 48 46 45 44 43 45 45 47 49 52 59 60 62 62 61 59 58 57
34 26 26 39 49 53 50 35 50 53 51 50 54 44 43 49 52 52 53 52 53 53 53 50 50 51 44 42 42 41 41 41 44 43 44 46 47 58 59 63 62 57 55 52
33 30 37 45 49 55 35 36 48 51 46 49 46 42 43 48 49 51 50 49 52 51 49 48 48 49 45 41 38 40 42 41 42 42 41 43 43 48 54 50 45 41 36 36
34 29 27 49 49 39 45 50 46 47 47 48 46 44 44 47 46 46 48 48 49 49 46 46 46 44 43 41 39 39 39 39 40 39 39 39 40 40 41 40 36 34 33 33
36 39 48 50 44 46 49 47 47 50 52 50 46 45 45 41 42 42 45 45 46 47 45 44 43 41 39 38 40 38 38 37 37 38 38 37 36 36 35 35 34 32 32 31
33 38 37 37 42 46 46 45 46 50 49 49 45 44 45 45 44 43 42 42 43 43 41 40 41 39 38 39 40 38 36 35 35 34 34 34 34 35 34 33 32 31 30 29
34 37 35 34 36 39 41 41 42 47 47 47 46 43 43 41 41 40 40 41 40 38 38 38 39 37 37 39 39 36 34 34 33 33 33 32 31 32 32 32 33 31 29 29
29 33 33 32 35 37 35 34 37 42 40 42 43 40 41 39 39 39 38 38 37 36 35 35 36 35 35 36 37 35 32 32 32 32 32 32 31 29 31 31 31 31 30 28
30 35 33 34 35 36 34 32 32 32 35 38 39 40 39 36 32 31 31 30 30 29 31 31 31 30 31 32 33 32 31 31 31 31 31 30 29 28 26 28 30 30 30 30
33 33 32 31 31 33 36 35 35 38 37 35 39 39 36 33 31 29 27 27 27 28 27 27 27 26 28 30 31 31 31 30 31 30 29 29 28 28 28 27 25 26 29 29
36 36 31 32 33 32 36 37 35 36 35 34 36 37 37 34 31 29 29 27 28 26 25 26 26 25 28 29 30 30 30 30 30 30 29 29 29 28 28 27 25 24 25 26
35 35 35 33 34 34 33 34 34 34 33 32 32 31 31 33 33 32 31 29 27 25 25 25 25 25 27 29 30 30 30 29 31 31 30 29 29 29 28 28 28 27 26 26
31 29 29 29 30 30 30 30 31 32 32 31 30 30 29 28 28 26 25 25 25 26 27 26 25 26 27 29 30 31 31 30 30 31 30 30 29 29 28 28 26 25 23 23
32 30 31 28 28 29 29 29 29 29 28 28 27 25 24 24 23 23 23 25 25 25 26 26 27 28 28 30 31 32 31 31 30 29 29 29 28 28 27 26 25 23 21 21
30 28 28 26 26 26 25 24 24 24 25 25 25 23 23 23 24 23 25 25 25 26 24 27 27 29 28 27 31 31 30 29 29 28 27 26 26 26 25 25 24 24 24 22
27 26 25 23 21 21 20 21 22 22 22 24 23 22 22 21 22 22 23 22 22 24 27 26 28 27 27 27 28 30 29 28 27 27 26 25 24 24 24 23 23 22 21 20
20 20 19 19 18 17 17 19 19 19 19 19 21 19 20 21 21 22 24 25 23 24 25 25 27 28 28 28 29 27 27 26 26 25 24 24 23 23 22 22 21 20 20 19
19 17 15 16 16 15 16 17 18 17 18 18 18 19 20 20 20 20 20 22 24 22 25 25 25 22 25 25 27 26 25 25 25 25 24 24 23 22 21 21 20 20 19 19
19 19 16 14 14 15 16 16 16 16 16 17 17 19 20 21 22 23 22 22 24 22 24 22 20 20 22 24 24 25 24 24 24 23 23 23 22 21 20 20 19 18 18 17
18 18 17 18 18 18 16 16 18 17 17 18 17 17 21 22 21 23 23 20 18 20 19 20 19 19 21 23 23 23 23 23 22 22 21 20 20 20 19 18 18 18 16 16
18 18 18 18 19 20 18 18 19 19 18 19 19 20 20 22 21 21 21 20 19 21 20 17 18 19 21 21 21 21 21 22 21 21 20 20 19 18 18 17 17 16 15 15
21 22 21 18 20 22 22 22 21 21 22 20 20 20 20 21 21 21 20 19 20 19 19 19 19 20 20 20 19 19 19 19 19 19 18 18 18 17 16 15 15 15 14 14
21 18 22 22 22 22 22 21 21 19 20 20 18 20 20 20 19 19 18 19 19 18 18 18 18 18 18 18 17 17 17 16 16 17 17 16 16 15 14 14 14 13 12 11

GFSNGP_sfc_temp_117.txt.gz
Temp
40 44 43 42 40 45 45 46 44 51 55 59 63 65 66 67 66 65 63 63 63 61 59 58 53 50 50 50 51 53 56 62 62 66 66 67 66 68 66 62 59 59 58 57
37 44 44 41 41 42 47 49 52 54 51 63 60 64 67 66 66 60 61 62 61 61 60 58 54 48 49 48 49 50 51 53 66 66 66 67 67 66 64 64 62 59 57 57
33 43 38 33 41 44 45 47 51 46 56 61 64 49 63 63 59 57 60 61 60 60 59 59 57 51 46 47 48 47 48 48 50 62 62 63 67 66 65 63 65 62 60 58
33 38 24 40 53 49 48 51 51 49 48 52 56 53 55 55 54 56 58 59 59 59 59 59 59 58 53 46 45 44 44 45 46 47 50 58 62 65 65 64 63 61 62 62
32 33 38 41 48 47 45 46 52 52 55 51 50 55 49 53 55 56 57 59 59 59 58 58 57 57 56 51 44 42 41 41 42 44 44 47 52 61 64 64 62 61 61 59
36 30 26 41 50 56 54 38 48 48 50 48 51 42 40 53 56 56 57 58 58 58 57 55 55 57 53 49 45 39 39 39 40 42 42 43 45 47 54 62 63 62 57 50
36 33 40 48 51 54 34 33 46 40 47 46 41 40 44 51 53 56 55 54 57 56 53 52 52 54 51 48 43 41 39 40 40 39 40 41 41 44 47 50 45 40 37 37
36 33 29 47 47 34 39 46 42 42 46 46 50 48 46 47 50 52 53 53 55 53 51 50 50 50 48 44 44 42 39 38 39 38 38 39 39 39 41 41 37 34 33 33
34 35 41 41 38 44 44 41 40 44 50 49 45 45 46 47 49 49 50 51 52 51 49 48 48 46 44 43 44 41 39 37 35 37 36 36 35 35 35 35 35 33 32 30
37 40 36 35 36 39 40 39 40 45 50 49 48 48 47 45 46 47 46 47 48 47 46 44 45 44 44 43 42 39 36 35 35 33 33 33 34 33 34 33 33 32 30 28
37 41 39 39 34 35 37 37 38 38 49 48 47 45 46 44 43 44 45 45 44 43 41 41 42 41 41 40 41 37 35 34 33 33 32 30 30 31 30 31 32 30 29 28
29 33 32 35 35 36 34 34 35 37 41 46 47 44 43 40 38 38 38 39 38 37 37 37 38 36 36 37 38 36 33 33 32 32 32 31 30 28 31 31 31 30 30 28
31 34 35 34 37 36 35 34 35 34 35 35 42 42 39 34 32 31 31 31 31 30 32 32 31 30 32 33 34 33 32 32 31 31 31 30 30 28 26 28 30 30 30 30
37 36 33 33 31 34 36 37 37 37 39 37 38 41 40 35 32 30 28 28 28 29 28 28 28 28 30 31 32 32 32 31 32 31 30 29 29 28 28 26 25 26 29 29
40 42 36 37 39 37 38 39 39 39 38 38 39 39 40 37 34 32 30 30 30 28 27 27 26 27 30 31 31 31 31 31 31 31 31 31 30 29 29 27 26 26 27 27
40 40 40 38 39 39 37 35 34 36 37 36 34 35 35 37 36 33 32 30 28 26 26 26 26 27 30 31 31 32 32 31 32 32 31 31 31 30 30 30 30 29 28 28
34 33 33 33 34 35 35 34 33 32 33 34 32 31 33 33 31 28 27 28 27 27 27 27 27 29 30 31 32 32 32 32 32 32 32 32 31 30 30 28 27 25 25 27
36 34 33 31 31 32 32 32 31 30 28 29 29 28 27 26 25 26 27 29 29 27 27 27 28 30 30 31 33 33 32 31 31 30 31 30 30 30 29 27 26 24 24 26
34 32 31 28 26 28 27 25 25 25 25 26 26 25 25 25 25 26 28 27 26 26 25 28 28 29 30 29 32 32 32 31 30 30 29 29 28 28 27 27 26 26 27 26
30 30 28 26 24 22 21 23 24 24 23 25 26 25 24 23 24 26 27 23 24 25 28 28 30 28 29 30 30 31 30 30 29 28 28 28 27 26 26 26 26 25 25 24
22 23 21 22 21 21 20 22 21 21 22 21 23 22 22 23 23 24 27 26 24 27 28 28 27 29 30 30 30 29 29 28 28 27 27 26 27 27 26 26 25 24 23 23
22 19 18 18 20 19 20 21 21 20 21 21 21 22 23 24 24 23 22 23 26 26 28 26 26 25 28 28 30 28 28 28 28 28 27 27 27 26 25 24 23 23 23 22
23 22 20 18 18 19 20 20 19 20 19 20 20 21 23 23 24 24 22 23 25 24 26 24 24 24 26 28 28 28 27 27 27 27 26 26 26 25 24 23 23 22 22 21
22 21 21 22 22 22 20 20 21 21 21 21 20 21 23 24 23 24 25 24 23 22 22 23 23 24 25 26 26 25 26 26 26 25 25 24 23 23 22 22 21 21 19 19
22 22 23 23 24 24 23 23 22 23 23 23 23 24 23 24 23 22 23 23 23 24 22 21 22 23 24 24 24 24 24 24 24 24 24 23 22 21 21 21 20 19 18 18
24 25 24 21 23 25 25 25 23 23 24 22 22 23 23 24 23 24 22 22 23 22 21 21 22 22 22 22 22 22 23 23 23 23 22 22 21 20 19 18 18 19 18 17
25 21 26 26 25 25 23 23 23 21 22 21 21 23 23 23 22 22 22 22 22 21 21 21 20 20 21 21 20 20 20 20 20 21 20 20 20 19 18 18 17 16 15 14

GFSNGP_sfc_temp_120.txt.gz
Temp
39 42 43 41 42 41 41 45 35 46 50 56 56 52 53 58 58 61 62 61 60 57 56 55 52 51 50 49 49 51 52 53 57 60 62 64 64 63 62 59 58 58 57 57
36 43 45 41 41 38 44 47 46 48 49 56 61 50 50 50 56 57 58 59 59 59 58 55 53 51 49 47 47 48 48 48 50 52 63 64 62 62 61 60 58 57 56 56
30 41 40 34 33 38 36 44 45 41 50 52 50 48 46 43 48 55 57 58 58 57 56 57 55 52 48 47 47 46 46 46 47 47 50 54 62 61 60 60 59 57 56 56
31 36 24 35 48 49 45 37 42 44 47 49 47 48 49 48 46 51 54 56 57 56 56 56 56 55 52 49 45 43 43 43 44 45 45 48 51 59 60 59 59 57 56 56
29 31 38 37 44 43 41 40 42 41 44 47 50 50 46 53 53 52 54 56 56 56 55 54 54 55 53 50 45 42 40 40 41 42 42 43 45 47 51 59 58 57 57 56
33 26 26 34 46 50 52 33 40 41 40 42 49 35 39 51 54 53 55 55 55 54 53 51 51 54 50 47 44 40 39 39 40 39 40 40 41 42 46 50 57 56 46 43
32 30 35 36 45 50 30 30 40 37 39 38 35 39 46 52 53 53 53 53 55 52 49 48 49 51 47 44 41 42 41 39 38 38 38 38 38 41 42 45 43 39 36 35
31 30 25 36 40 31 35 40 38 36 41 42 42 44 45 48 49 50 50 51 52 49 47 47 47 47 44 41 43 42 41 38 37 35 35 37 37 37 38 38 36 34 33 32
31 30 35 38 34 36 38 37 36 35 43 44 45 46 46 46 47 47 47 47 48 47 45 45 44 43 40 40 41 39 37 36 35 35 33 33 33 33 34 35 34 32 31 29
35 36 36 35 36 35 36 35 38 37 43 45 43 43 43 43 44 44 44 43 44 43 41 40 41 40 39 39 40 37 35 34 34 32 31 31 32 32 32 32 33 32 30 28
36 39 38 39 35 35 35 35 35 38 38 44 44 42 39 37 37 37 38 39 39 37 37 36 37 35 36 37 38 35 33 32 32 31 30 29 29 29 29 29 31 29 28 28
30 33 32 35 35 36 35 34 35 35 36 37 42 39 36 33 33 33 32 33 32 32 33 33 33 32 33 35 36 34 31 31 30 30 30 29 28 27 31 30 31 30 29 27
33 35 35 36 36 36 34 35 35 34 35 35 36 37 35 31 30 30 29 28 28 28 29 30 29 29 31 32 33 32 31 31 30 29 29 28 28 26 24 28 30 30 30 30
38 36 34 34 32 34 37 38 38 39 38 36 35 38 36 32 30 28 28 28 28 27 27 27 27 27 30 31 32 31 31 31 30 29 28 27 26 25 25 24 23 25 29 29
41 43 39 39 41 40 40 37 37 35 36 35 36 35 36 33 30 29 28 29 29 27 26 26 25 26 30 31 31 31 31 30 30 30 29 29 28 27 26 25 24 24 25 27
40 42 40 38 38 38 38 34 33 32 33 32 31 31 32 32 30 29 29 28 26 24 25 26 26 27 30 31 32 32 31 31 31 31 30 30 30 28 28 27 26 26 26 26
34 32 32 32 33 34 34 33 31 30 29 29 28 30 30 29 28 27 27 27 25 26 26 26 27 27 29 31 32 31 31 31 31 30 30 29 28 27 26 24 23 23 24 25
37 34 33 30 28 30 29 28 28 27 26 27 28 26 25 25 24 25 26 28 26 24 26 27 27 28 28 30 32 31 30 30 30 29 29 28 27 27 25 24 24 23 23 24
34 31 29 26 25 26 25 24 23 24 23 25 25 24 24 24 25 25 26 25 23 23 24 28 28 29 29 29 31 30 30 29 28 28 28 28 27 26 25 24 24 23 23 21
28 28 26 25 23 22 21 22 23 22 22 23 24 23 22 22 22 23 24 21 22 24 27 27 28 28 28 29 30 30 29 28 27 27 26 26 25 24 24 23 23 22 21 20
22 22 21 22 21 21 20 21 21 20 21 21 21 21 21 23 20 21 24 22 23 25 26 25 26 26 28 29 30 29 29 28 27 26 25 24 24 24 23 23 21 21 19 19
22 19 18 18 20 19 20 21 21 20 20 20 20 21 23 23 22 20 19 21 24 23 25 24 24 24 27 28 28 28 28 27 27 26 25 25 24 23 22 21 20 19 19 18
22 22 20 19 19 20 20 20 19 19 19 17 17 18 22 23 23 21 18 22 23 22 23 23 23 24 26 27 27 26 26 25 25 25 24 24 23 22 21 21 20 19 18 17
22 22 21 22 22 23 20 21 21 21 20 20 18 18 22 21 22 24 23 23 21 20 21 22 22 23 25 25 25 25 24 24 23 23 22 22 21 21 20 19 18 17 16 15
22 22 23 23 23 23 23 25 22 22 22 23 22 23 23 24 21 21 22 22 21 22 22 20 21 22 23 22 21 21 22 22 23 22 21 21 20 19 19 18 17 16 15 15
24 24 24 22 23 24 24 25 23 23 23 22 21 22 22 23 23 23 22 21 21 21 21 21 21 21 21 21 21 20 21 21 21 20 20 19 19 17 16 16 16 16 15 13
25 22 25 24 25 24 23 22 22 20 21 21 20 22 22 22 22 22 21 21 21 20 20 20 19 19 19 19 19 18 18 17 17 19 19 18 17 17 16 16 15 13 12 10

GFSNGP_sfc_temp_123.txt.gz
Temp
33 37 38 37 39 35 32 36 33 38 38 44 45 46 48 48 46 51 52 52 52 51 49 48 46 45 46 46 47 50 50 50 50 53 55 60 61 60 59 58 56 57 56 56
30 37 39 37 35 35 35 35 39 40 38 45 47 46 45 45 44 43 53 54 54 54 52 49 47 45 46 44 44 46 46 47 49 50 52 53 59 59 59 58 55 55 55 55
25 35 35 29 32 33 32 35 35 31 38 46 46 44 42 43 44 44 45 52 52 51 51 50 47 46 43 43 43 42 43 44 45 47 48 49 52 58 59 57 57 55 55 55
27 31 20 33 44 41 36 34 34 35 38 44 44 45 46 47 46 46 46 49 50 49 48 49 49 46 44 43 43 41 41 41 42 43 45 46 47 48 51 57 57 55 55 55
25 25 34 31 35 35 33 32 37 34 36 40 45 46 45 51 51 50 50 50 48 48 47 46 46 46 44 41 41 40 39 39 40 40 41 42 43 43 45 48 55 56 55 54
28 24 21 27 36 40 46 28 36 35 36 37 42 33 35 48 50 50 50 49 47 46 45 43 44 44 42 39 39 38 38 38 38 38 39 39 39 41 43 45 48 50 44 42
26 25 28 32 37 42 26 26 35 33 37 35 32 35 39 45 48 48 48 48 46 44 41 41 42 41 38 38 37 39 39 38 36 36 36 37 38 39 39 41 41 37 36 35
27 24 19 34 36 27 31 36 35 33 37 39 39 39 39 41 42 44 43 44 45 41 39 39 38 38 37 37 38 38 37 36 34 33 34 35 36 36 36 37 35 33 33 32
28 27 34 35 33 35 35 34 34 35 37 39 38 38 39 38 39 39 39 39 40 38 36 36 36 36 34 36 37 36 35 33 33 33 32 32 31 33 34 34 33 32 31 30
30 31 33 33 36 36 36 34 35 37 38 37 36 35 36 36 34 34 34 34 35 34 32 32 34 35 35 36 37 34 32 32 32 30 29 30 30 30 29 30 32 32 30 28
30 35 35 35 34 35 36 35 34 36 36 37 35 34 34 32 32 32 32 32 32 31 30 30 32 32 33 35 36 33 31 31 30 30 29 28 29 28 28 28 30 29 28 27
20 32 31 34 34 34 35 35 34 34 35 36 35 33 32 30 30 30 29 30 29 29 29 29 30 31 32 34 34 32 30 29 29 29 28 28 27 27 31 30 30 30 30 28
29 36 36 35 34 35 34 34 35 34 34 33 35 33 31 29 28 29 27 27 26 25 27 27 27 28 30 31 32 31 29 29 28 28 27 27 26 25 24 28 30 30 30 30
35 33 29 31 26 31 35 35 36 36 35 33 33 34 31 28 28 25 26 26 26 24 24 23 23 25 29 30 30 28 29 29 28 27 26 25 25 25 25 25 24 25 30 30
39 41 35 34 36 34 35 35 33 31 31 30 31 31 30 28 26 25 24 25 25 25 22 20 19 25 28 28 28 29 26 25 23 28 27 27 27 25 25 25 25 25 25 26
38 36 36 33 34 34 31 30 28 28 28 28 27 28 28 28 27 27 26 26 23 21 22 21 18 23 27 30 29 28 27 27 27 28 27 26 24 23 23 23 23 23 23 22
30 27 28 27 27 29 27 27 27 26 26 26 27 27 27 27 26 24 23 18 15 19 18 19 21 21 24 29 29 23 23 27 25 26 25 24 22 22 21 21 21 21 21 21
31 27 26 25 24 25 24 24 25 24 23 24 24 20 19 20 18 18 19 21 13 15 21 23 22 24 25 27 27 26 25 25 26 25 25 23 22 22 21 21 20 20 19 19
28 26 24 23 23 23 22 21 22 21 19 21 20 15 15 17 19 17 15 15 15 16 19 24 27 26 27 27 26 24 22 22 23 24 24 21 22 21 21 20 19 18 18 17
24 24 24 22 21 21 19 20 20 20 19 19 18 16 14 13 16 18 13 12 15 22 24 24 25 25 25 27 26 24 23 23 24 21 22 22 20 19 19 17 17 16 15 15
19 20 18 20 18 18 17 19 19 18 18 17 15 14 13 12 14 16 19 17 18 22 22 22 22 23 25 25 25 23 23 22 20 19 17 14 18 19 17 16 14 13 12 13
12 10 9 11 14 12 13 14 17 15 14 13 14 14 14 15 12 13 12 16 18 18 18 20 21 22 24 24 24 23 23 23 22 21 20 19 15 14 12 14 14 14 13 12
12 15 11 8 8 10 9 10 9 9 8 8 9 14 17 13 14 14 11 17 17 16 19 19 20 21 23 23 23 23 22 21 21 21 20 18 17 16 13 10 12 14 13 12
12 12 11 14 12 12 9 9 10 10 11 10 8 7 13 16 13 17 14 16 15 11 14 18 19 20 20 21 21 20 20 19 19 18 19 17 15 16 15 13 12 12 11 11
16 15 14 16 19 19 18 18 15 16 17 10 12 13 15 13 9 9 11 12 14 14 15 14 18 18 17 18 18 18 18 18 18 16 16 14 13 13 12 12 10 10 8 9
16 15 13 13 14 14 15 18 13 11 18 13 9 10 9 10 15 16 11 12 12 13 10 12 16 14 16 16 16 16 15 16 17 17 15 14 12 12 12 10 10 10 9 7
15 16 22 18 14 15 13 12 12 9 9 14 9 11 14 15 12 14 13 11 10 8 7 9 11 12 12 11 11 12 14 15 14 15 14 12 11 12 12 10 8 8 7 6

GFSNGP_sfc_temp_126.txt.gz
Temp
31 33 34 34 32 32 31 31 27 31 36 38 41 43 44 44 44 44 46 48 48 47 47 46 44 45 43 43 45 47 47 48 48 50 54 57 59 59 59 58 58 57 56 55
29 34 36 34 35 33 33 32 33 33 34 40 44 46 44 44 44 43 43 44 48 49 48 46 44 42 42 41 41 43 44 44 45 47 50 51 52 57 58 57 56 55 54 55
24 33 33 27 29 32 32 33 31 26 32 36 43 43 43 43 43 42 43 43 45 46 45 45 43 42 40 40 43 42 41 42 42 43 45 47 49 51 57 56 56 55 55 55
24 29 16 30 39 38 33 33 33 32 33 36 40 41 43 46 44 43 42 41 42 44 44 45 44 42 41 40 41 40 40 40 40 40 41 43 45 46 48 51 55 55 54 54
24 23 31 30 34 31 29 30 34 31 33 36 40 40 36 41 46 45 44 43 43 43 42 43 42 42 40 38 39 39 37 37 38 38 39 39 39 41 44 45 49 54 55 54
25 20 18 26 35 39 37 26 33 33 33 34 36 28 31 40 42 43 44 43 41 40 39 39 39 40 38 36 36 36 36 36 36 36 37 36 37 38 40 43 46 49 43 42
23 21 24 31 34 38 26 23 33 33 34 35 31 34 35 37 38 40 40 41 40 38 35 35 37 39 37 36 35 36 37 36 35 34 35 34 36 37 38 39 38 35 34 34
23 20 17 33 35 26 30 33 34 34 35 35 36 35 35 37 36 35 35 36 37 34 33 34 35 37 35 33 36 36 35 34 33 32 33 33 32 34 36 36 34 32 33 31
23 23 33 36 33 35 35 33 33 34 37 36 35 34 35 33 33 33 33 32 34 32 32 34 35 34 33 34 35 35 33 32 31 31 31 31 29 29 31 33 33 32 30 29
28 30 33 33 36 36 37 34 35 36 36 36 33 33 32 32 31 31 31 30 31 31 31 31 33 33 33 35 35 33 31 31 30 30 29 30 30 29 28 29 32 32 31 29
28 32 33 33 34 33 36 36 35 36 36 35 33 31 30 30 30 30 30 30 30 29 29 29 31 32 33 34 34 32 30 30 30 29 29 28 29 28 28 29 30 28 27 27
21 32 30 33 33 34 34 34 34 34 34 35 33 31 30 28 29 28 27 28 27 27 27 27 29 30 31 33 33 31 30 29 28 28 28 28 27 27 31 31 31 31 30 29
28 36 36 34 33 33 31 34 34 32 32 31 33 30 29 27 28 27 26 26 24 24 25 25 26 28 30 30 30 30 28 28 27 27 26 26 26 26 24 29 31 31 31 30
32 33 30 27 24 30 32 33 34 34 33 31 31 31 29 27 26 24 23 21 22 20 20 21 21 24 27 29 27 23 22 26 26 26 25 25 25 25 26 25 23 24 29 29
36 38 34 30 31 30 32 32 30 29 28 28 29 29 28 26 25 24 24 19 14 16 18 17 19 22 26 26 24 22 21 19 18 24 25 24 22 23 25 25 23 23 24 24
33 33 32 30 29 28 26 27 26 26 26 27 26 26 26 26 26 26 25 24 21 19 19 18 20 23 25 27 24 21 23 25 22 21 20 20 20 21 20 20 21 21 20 20
30 26 27 25 25 25 24 25 25 24 25 25 25 26 26 26 23 22 21 17 15 16 18 18 20 23 24 26 22 20 20 22 21 22 20 19 20 20 20 19 18 17 17 18
27 25 24 24 23 23 23 23 24 23 22 22 21 19 18 16 13 12 14 15 16 15 17 21 24 25 26 27 25 23 22 22 22 20 20 18 19 20 19 18 17 16 16 16
26 24 24 23 22 22 21 20 19 18 17 19 17 12 14 15 15 11 9 13 15 17 16 22 25 25 25 27 25 22 21 20 21 20 19 16 16 18 16 16 15 14 15 14
23 24 23 21 20 20 18 17 19 18 19 17 13 11 13 13 15 12 9 11 15 19 22 22 23 23 24 26 24 22 22 21 21 19 17 15 13 12 12 13 13 12 10 10
19 19 18 18 15 15 13 15 15 17 16 16 15 11 12 9 13 14 14 14 16 20 20 20 21 22 23 23 24 22 20 19 18 18 18 14 12 11 10 8 7 6 7 8
13 12 10 11 11 9 10 11 14 9 8 10 12 11 10 11 9 9 7 11 15 14 17 19 20 21 22 22 23 21 22 21 20 20 18 16 15 11 8 7 6 5 4 2
9 9 7 5 6 8 7 6 5 5 4 3 7 12 12 10 10 10 9 16 16 16 17 18 18 18 20 21 20 19 19 19 19 19 17 15 14 10 9 8 6 4 2 3
9 9 10 10 7 10 8 7 6 6 4 5 3 2 11 7 9 13 11 15 14 11 12 17 17 18 17 17 18 19 18 17 16 16 15 14 14 13 10 9 8 4 1 1
13 10 10 13 15 15 13 12 11 12 12 7 7 9 12 10 7 7 6 8 12 10 10 12 15 16 16 15 15 16 16 16 15 14 13 13 12 11 9 9 9 7 4 2
15 13 10 10 10 10 11 15 8 11 12 7 6 2 3 4 10 10 6 6 8 7 7 10 11 13 13 13 13 13 13 14 14 13 11 9 8 9 8 8 7 5 3 1
11 16 16 13 10 11 9 9 7 4 6 4 4 4 10 6 7 9 7 5 3 2 4 8 9 11 10 11 12 11 11 12 13 12 9 10 10 8 6 4 3 3 3 3

GFSNGP_sfc_temp_129.txt.gz
Temp
28 31 31 30 32 31 28 30 25 27 29 34 34 38 43 44 43 42 41 40 42 44 43 43 42 42 42 42 43 45 45 45 45 48 50 52 54 58 59 58 58 58 57 56
27 32 32 30 32 31 33 32 31 31 30 35 38 40 43 43 43 41 39 38 39 42 42 41 40 39 40 41 41 43 42 42 43 45 47 47 49 51 57 57 57 55 55 55
23 30 30 25 26 30 30 33 29 25 30 34 34 34 36 39 39 38 38 36 36 38 40 41 39 39 38 39 41 41 40 40 41 42 43 44 46 48 48 51 56 55 55 54
22 27 13 28 38 36 31 32 32 32 32 33 35 34 35 39 38 38 38 38 36 37 38 39 40 39 38 38 39 39 38 38 38 39 40 41 42 43 44 46 49 54 54 54
22 23 28 29 34 30 28 28 32 31 32 34 36 33 33 36 37 35 39 38 37 37 36 37 38 38 37 36 36 37 36 36 36 36 37 38 38 39 41 42 45 48 53 53
24 20 13 25 35 35 35 23 31 32 31 34 35 27 30 35 35 36 38 38 35 35 35 34 36 39 36 35 34 34 34 34 35 35 35 34 34 36 39 40 42 41 39 38
22 22 22 31 32 36 23 21 32 32 33 34 31 32 34 34 35 35 36 35 35 34 32 34 36 37 35 34 33 35 35 34 34 33 34 34 31 34 36 37 36 35 34 33
21 19 17 32 34 26 29 34 33 33 35 34 33 34 33 33 33 32 32 32 33 32 33 34 35 34 33 32 34 35 34 33 32 32 32 32 30 30 34 35 34 33 33 33
23 22 31 33 33 36 36 32 33 33 35 35 33 32 32 31 31 31 31 31 32 31 32 32 33 33 32 32 34 33 32 31 31 31 31 30 29 29 30 32 33 32 31 30
27 29 30 32 37 35 36 34 35 36 36 35 32 31 30 30 29 30 30 29 30 30 29 29 32 32 32 33 34 32 31 30 30 29 29 30 30 29 28 28 29 29 29 29
27 30 33 34 34 32 34 37 36 36 35 34 33 30 29 28 27 28 28 28 27 26 26 27 30 31 32 32 33 31 30 30 29 29 29 28 29 28 28 29 29 27 27 27
20 29 29 32 35 33 32 32 35 32 32 34 32 29 29 27 27 26 26 26 26 25 26 25 27 29 30 31 31 30 29 28 27 27 27 27 27 28 32 31 31 31 31 29
27 34 34 35 32 32 31 33 33 29 29 29 31 29 27 26 25 26 24 24 24 23 23 24 25 26 27 28 28 27 27 27 27 26 26 25 25 26 24 27 31 31 31 30
32 32 29 27 23 29 31 32 32 31 30 29 29 29 27 25 24 19 18 17 17 18 19 20 20 23 25 25 22 21 20 24 26 26 25 23 22 22 25 23 22 22 26 28
34 35 29 28 29 28 29 30 28 28 27 27 27 27 27 26 24 23 21 20 16 17 18 20 20 22 24 24 19 17 18 16 17 17 17 17 18 23 23 23 21 20 21 21
31 30 30 29 28 27 27 26 26 26 26 26 25 26 26 25 25 24 24 23 20 17 18 19 19 23 23 22 19 17 16 19 19 19 18 17 18 17 17 17 17 16 16 16
29 27 27 25 26 25 24 24 25 24 25 24 24 25 25 24 22 21 18 17 16 16 18 19 20 24 24 25 19 17 18 20 18 20 18 17 17 17 16 15 14 14 14 15
27 25 25 25 24 24 23 24 23 22 21 22 20 17 16 15 13 11 10 10 14 18 19 20 22 24 24 26 25 23 21 21 20 18 18 16 17 17 14 14 14 13 12 14
26 24 24 23 23 22 21 21 19 19 18 18 17 13 12 14 16 12 11 12 12 16 17 21 24 24 24 25 23 21 20 18 18 18 17 14 14 15 12 10 9 9 11 10
23 23 22 20 20 19 17 16 19 17 17 16 14 14 14 14 14 11 10 11 12 17 20 21 22 22 23 24 21 20 21 19 20 16 16 16 13 11 11 10 9 6 5 6
19 20 18 17 15 14 10 12 13 14 14 14 15 12 11 13 12 11 12 13 15 18 19 20 21 21 23 23 22 20 16 16 16 16 15 15 13 12 9 5 5 2 2 3
11 9 6 8 10 7 7 8 11 6 7 9 9 7 8 10 9 10 9 11 15 14 17 19 19 18 21 21 21 20 19 17 15 16 14 13 12 9 7 7 5 3 -1 -3
10 9 6 4 5 6 2 3 1 2 3 2 5 8 7 9 8 8 9 15 16 14 16 17 17 17 18 18 18 18 17 16 16 14 14 13 11 10 9 6 5 5 3 3
7 8 7 7 5 9 8 5 3 3 2 4 0 -0 8 6 7 12 10 9 7 7 8 13 13 15 15 15 16 16 15 14 14 12 12 13 12 8 5 4 3 1 3 3
10 8 8 10 11 10 11 7 7 8 7 5 3 6 12 9 6 8 3 4 8 7 7 7 9 11 12 11 11 12 13 13 12 12 12 12 9 8 7 7 4 2 1 2
13 11 8 7 9 8 9 10 6 7 7 4 4 -1 -0 1 5 4 1 1 3 3 3 3 4 6 8 10 10 9 9 10 8 9 9 9 8 5 4 4 3 2 0 -2
9 12 11 10 8 8 7 5 3 3 4 -1 2 2 5 1 1 4 1 -1 -2 -2 -2 -1 1 3 3 6 7 8 9 8 8 8 8 8 7 6 5 2 -0 -2 -1 -1

GFSNGP_sfc_temp_132.txt.gz
Temp
27 29 28 29 28 29 20 28 25 26 28 32 32 32 36 38 39 38 35 34 34 34 35 38 38 38 40 41 41 43 43 42 42 45 47 48 50 53 58 58 58 59 58 57
25 30 29 28 30 29 29 30 29 30 30 35 36 34 34 34 34 34 34 33 32 34 35 37 37 37 37 39 39 41 40 40 41 43 44 44 46 48 50 55 56 57 56 56
22 29 28 21 27 27 23 31 29 23 29 34 34 32 32 33 34 33 34 34 32 32 32 34 37 37 35 36 39 38 38 38 39 40 41 41 43 45 45 47 51 55 55 55
23 26 12 26 35 34 29 30 30 31 32 32 34 34 34 35 33 33 34 34 33 32 33 33 36 38 37 36 36 36 36 36 37 37 38 39 40 40 42 44 46 48 54 54
19 22 27 26 31 28 26 25 31 29 32 34 36 36 34 35 35 34 34 34 34 34 34 35 35 38 36 35 35 34 33 34 34 35 36 36 35 36 39 40 43 43 43 45
24 20 11 25 33 34 33 21 31 32 31 32 33 25 29 33 34 34 34 34 32 33 35 34 34 37 35 33 33 32 33 33 34 34 34 33 31 34 37 39 39 39 36 36
22 20 23 29 32 34 23 20 32 32 32 32 29 32 33 33 34 34 33 32 33 33 33 32 34 35 33 32 31 33 34 33 33 32 32 32 32 33 35 36 36 35 33 33
21 19 16 30 31 27 27 33 33 33 34 33 33 34 32 31 31 32 30 30 32 31 31 33 33 33 32 30 34 34 33 32 31 31 32 32 31 32 33 34 34 33 33 32
23 22 30 31 30 34 33 33 33 33 35 34 32 31 31 29 29 29 29 28 30 29 29 31 32 32 30 31 34 33 32 31 30 31 31 30 29 29 30 31 30 30 30 29
28 28 29 31 33 33 32 32 35 35 35 34 31 30 29 28 27 27 27 27 27 27 26 27 30 31 31 32 33 32 30 30 30 29 29 30 30 29 28 28 28 27 27 27
27 30 30 31 31 31 31 34 36 34 34 33 31 28 28 27 26 26 27 26 27 25 26 25 27 29 30 30 31 30 30 29 29 29 28 28 29 29 28 29 29 27 27 27
18 28 28 29 31 32 30 33 33 32 31 32 31 27 27 24 26 26 24 25 25 25 25 24 25 27 28 28 28 29 29 28 27 27 26 26 27 27 30 30 31 32 31 29
25 32 30 31 31 30 29 32 31 26 27 28 30 28 26 25 24 24 23 23 22 22 23 24 25 25 27 26 26 26 26 27 27 27 25 22 22 23 23 26 29 29 30 31
31 33 28 27 23 28 30 30 30 29 28 28 28 28 27 25 24 20 18 19 18 18 19 20 21 22 24 24 22 20 20 21 23 21 18 15 23 23 23 20 19 20 25 25
31 33 29 27 29 27 28 28 27 26 26 27 27 27 27 25 24 23 20 18 19 19 18 18 19 21 23 23 18 16 16 13 12 14 16 16 17 20 19 16 15 15 17 18
31 31 29 28 27 27 26 26 25 24 25 26 25 25 25 25 25 23 22 21 18 16 18 18 18 21 23 21 19 15 14 18 17 18 17 16 16 15 14 14 14 13 13 13
29 26 26 25 26 25 24 25 24 23 24 24 23 23 23 23 21 18 13 11 11 12 15 18 19 22 23 25 22 19 17 19 17 18 17 16 16 15 14 13 12 12 11 11
26 25 23 25 24 24 23 24 22 22 20 21 19 16 14 13 10 9 9 8 10 12 14 18 21 24 24 24 24 22 19 20 19 18 17 15 15 15 12 12 12 11 10 12
25 23 24 24 23 22 21 20 18 18 18 17 15 12 11 12 14 10 9 11 13 14 15 20 22 23 23 25 23 20 20 18 19 18 18 13 12 13 9 8 7 7 8 8
23 22 21 19 18 18 16 15 17 15 15 15 14 14 13 12 10 8 12 10 10 16 19 20 21 21 22 23 22 22 20 19 20 18 16 15 11 7 8 7 7 4 3 5
18 19 17 16 13 11 8 9 10 12 10 7 11 6 5 7 8 7 11 13 15 18 18 19 19 19 21 21 22 20 18 15 15 15 14 11 12 10 6 3 2 -0 0 1
7 7 5 7 9 6 5 6 9 4 5 5 1 3 5 8 8 8 8 10 15 13 15 17 17 17 18 18 20 18 18 17 14 14 12 11 10 8 2 1 -1 -4 -3 -2
6 7 4 3 5 5 0 1 -1 -0 0 -2 2 4 5 7 7 7 8 14 14 13 14 13 13 14 15 16 16 16 16 15 15 13 12 10 9 7 5 5 3 -2 -2 1
6 7 5 5 3 7 7 5 2 3 -0 1 -1 -3 3 2 4 10 9 6 6 6 6 11 10 13 12 13 14 14 14 13 13 12 12 11 8 7 7 3 5 0 -2 2
9 6 6 7 8 7 9 5 4 7 6 3 2 5 7 6 3 6 -0 1 5 4 4 4 6 7 10 11 11 11 11 11 11 11 11 10 9 8 7 7 3 1 0 0
11 10 7 6 7 7 10 9 5 4 8 8 7 3 5 5 8 6 -0 -2 0 2 0 -1 -0 2 3 6 8 9 9 10 10 10 8 8 6 3 3 4 2 2 0 0
8 9 8 8 7 7 5 3 2 2 5 -1 0 -0 2 -3 -3 -0 -3 -4 -3 -5 -6 -4 -2 -0 1 1 4 7 9 9 9 8 7 7 6 4 3 1 0 -1 -0 -0

GFSNGP_sfc_temp_135.txt.gz
Temp
32 34 33 33 32 32 26 29 26 31 31 34 33 34 34 35 37 37 35 34 32 31 32 32 33 34 36 38 38 39 39 40 41 43 45 47 48 50 54 59 60 60 60 60
28 34 33 30 32 32 31 32 33 33 33 38 38 38 35 36 34 34 34 33 32 31 31 32 34 35 36 36 37 38 38 38 40 41 43 44 45 47 48 51 56 58 58 58
26 32 31 25 30 31 29 32 30 25 30 35 34 34 32 33 33 33 33 33 32 31 31 32 34 36 36 38 39 39 38 37 37 38 39 40 42 44 44 46 51 52 56 56
26 30 19 31 38 37 32 31 32 31 31 32 34 36 35 37 33 32 33 33 33 33 34 34 34 36 38 38 38 38 37 37 37 36 37 37 39 39 41 43 45 47 45 48
25 26 30 29 34 33 31 29 32 30 32 34 36 38 36 36 36 34 34 34 34 35 36 36 35 36 37 37 37 36 34 34 35 35 36 37 35 36 38 40 41 41 40 40
27 22 18 30 35 37 36 26 33 33 31 32 34 28 32 34 35 35 35 35 34 35 36 35 36 37 35 35 35 33 34 34 35 35 35 34 35 36 38 40 39 38 36 35
26 25 29 34 35 37 25 27 34 33 33 32 29 31 33 35 33 35 34 33 34 34 34 34 36 36 34 34 32 34 35 34 34 34 34 34 35 36 36 38 38 36 35 34
26 23 21 36 35 31 33 36 35 34 35 33 34 34 34 33 31 32 31 31 32 32 32 34 34 34 32 31 34 35 34 33 33 33 34 34 33 34 34 35 34 34 33 32
31 31 35 37 36 37 38 34 36 35 37 34 33 32 32 32 31 30 31 31 32 31 32 33 33 33 31 31 34 34 33 32 32 34 33 33 32 31 32 32 31 31 31 30
33 32 35 36 38 38 38 37 38 37 36 36 32 31 31 31 30 29 29 29 31 30 30 30 32 32 32 32 33 34 32 32 33 32 32 32 32 32 30 29 29 28 28 28
31 36 35 35 37 37 36 37 37 35 36 34 33 30 29 29 29 28 27 27 28 29 29 29 31 31 33 32 32 32 32 31 31 31 32 31 30 29 29 29 30 29 28 29
29 35 35 35 36 36 35 34 34 33 32 34 33 30 30 28 28 28 26 27 25 27 28 28 29 30 31 32 32 30 30 30 29 30 29 31 31 30 30 29 29 29 31 30
33 36 35 35 35 36 34 33 31 29 30 29 31 31 29 28 27 25 25 25 24 23 25 26 27 28 28 30 30 29 28 28 28 28 28 29 29 27 26 28 28 27 27 29
35 34 31 31 29 33 34 32 32 31 31 30 30 30 29 28 27 23 21 21 22 22 22 22 23 24 26 27 26 24 26 22 26 26 26 26 26 25 25 24 23 23 25 24
35 35 32 30 31 30 31 32 29 28 29 29 29 28 28 27 26 24 24 22 22 21 20 21 21 23 25 26 25 24 27 27 26 26 25 24 25 25 25 24 23 22 25 25
33 32 32 31 29 29 28 28 27 25 27 27 26 26 26 26 25 24 23 22 20 18 18 19 22 23 25 26 26 27 27 24 24 27 26 26 25 24 24 23 23 22 20 20
30 28 29 28 27 27 25 26 25 24 25 25 24 24 24 24 21 19 18 16 16 16 17 20 20 23 25 27 27 27 27 27 23 26 25 24 24 23 23 23 22 21 19 16
29 27 28 28 26 26 24 24 23 23 22 22 20 17 16 17 16 15 15 16 17 18 19 20 22 25 26 28 28 28 27 26 25 24 24 23 23 23 22 21 21 20 20 19
27 26 26 25 25 23 22 20 19 19 18 18 17 16 17 17 16 16 17 16 16 18 19 23 23 25 26 27 28 28 26 25 24 24 23 21 21 21 20 20 19 18 19 18
24 24 23 20 20 20 16 16 18 17 16 17 16 15 15 14 14 15 17 16 17 18 21 22 23 23 24 25 25 28 27 26 24 23 22 21 20 19 17 15 17 17 17 16
20 20 18 17 15 14 12 14 15 15 13 13 14 12 12 13 12 14 16 17 18 18 20 20 21 21 24 24 27 26 25 24 23 23 21 20 19 17 17 16 16 16 16 16
15 13 12 13 14 13 12 14 14 11 11 11 9 9 12 14 14 16 13 14 19 14 19 20 19 17 20 22 24 24 24 23 23 22 21 20 19 17 16 16 15 14 14 15
14 13 12 11 13 14 10 11 9 11 11 10 11 12 14 15 16 16 15 17 18 16 19 18 13 14 15 20 21 21 21 21 21 20 20 19 18 17 16 15 14 14 14 14
13 14 14 12 11 15 16 15 13 12 9 11 10 7 14 17 17 18 17 13 11 12 13 13 12 12 14 18 18 18 19 19 19 19 19 16 17 16 16 15 14 14 14 13
15 13 13 14 16 17 16 14 14 14 14 16 14 15 14 16 15 15 14 14 12 14 15 10 9 11 15 16 16 16 17 17 16 18 17 17 16 16 16 15 14 14 13 13
18 19 18 16 18 19 19 19 17 16 18 18 17 15 15 15 16 16 14 10 13 12 13 13 12 13 14 14 15 15 15 16 16 15 15 15 15 14 13 13 13 13 13 13
16 14 17 17 17 18 18 17 18 16 16 16 16 15 15 14 13 14 9 13 13 12 12 12 13 12 13 13 13 14 14 15 12 14 14 14 14 13 13 12 12 12 11 11

GFSNGP_sfc_temp_138.txt.gz
Temp
40 42 41 41 39 39 32 35 29 39 40 44 40 37 39 41 42 41 40 38 34 31 31 32 32 33 35 36 38 39 41 43 40 45 45 50 48 51 53 55 64 68 67 66
35 41 41 38 39 38 37 38 41 42 41 43 43 41 39 38 39 38 39 37 35 33 32 32 32 35 35 35 37 39 36 36 40 40 41 42 44 46 48 50 54 59 61 61
33 39 37 30 35 36 33 39 36 30 33 36 37 37 36 35 38 36 38 37 35 34 33 33 34 35 35 38 39 38 34 36 38 37 37 39 41 43 43 46 49 50 50 56
34 35 23 36 46 46 40 37 39 36 34 34 36 39 37 40 37 38 39 38 37 38 37 37 38 38 37 40 40 39 39 39 37 37 37 39 39 39 41 43 44 43 44 46
30 32 35 34 39 40 38 36 40 34 35 36 38 42 37 40 40 40 40 41 40 40 39 39 38 39 39 36 38 38 37 37 38 38 37 37 36 38 40 40 40 39 39 39
33 27 24 38 42 44 44 32 41 37 36 34 37 33 38 38 41 40 42 41 40 41 40 38 38 39 38 36 35 35 36 37 38 39 38 36 37 38 39 40 38 37 36 35
32 30 34 42 43 44 30 32 41 36 36 35 31 34 37 39 40 41 41 40 41 41 39 38 39 38 38 37 35 36 38 38 39 38 37 37 37 37 39 39 39 37 35 36
33 29 26 44 41 35 40 43 42 40 39 37 37 37 38 39 39 39 39 39 40 39 38 39 38 38 37 36 37 39 39 38 38 37 36 37 36 37 37 37 36 36 35 35
37 38 44 46 44 45 44 42 42 41 41 38 35 35 38 38 39 38 37 38 39 38 37 37 37 37 36 36 38 39 39 38 38 37 36 35 33 33 34 35 34 32 33 32
38 39 43 44 45 45 45 44 44 44 42 39 35 35 37 38 38 37 36 35 36 37 35 34 36 36 36 37 38 39 38 37 39 37 36 34 34 32 30 30 32 31 31 30
38 43 42 43 44 44 43 43 43 40 41 39 37 34 35 36 35 35 35 34 34 32 33 33 35 35 35 36 39 37 36 36 37 37 36 35 32 30 30 29 29 30 30 30
35 42 42 42 44 44 41 40 40 39 38 39 36 34 36 34 34 33 33 34 32 31 31 31 33 34 35 35 36 36 35 35 34 36 36 35 34 32 30 29 28 29 30 30
37 43 42 42 43 43 39 35 35 32 34 35 34 34 33 33 30 28 29 28 28 27 28 29 29 30 31 33 34 32 32 33 34 34 32 32 32 30 29 30 29 28 28 29
41 38 34 37 32 38 37 35 35 36 36 35 34 33 32 31 29 27 25 25 25 25 24 25 26 27 29 30 30 30 31 30 32 31 31 31 31 30 30 30 29 29 29 27
42 42 37 34 36 35 37 37 35 34 34 34 34 32 32 30 29 28 27 25 25 25 23 23 24 26 28 29 30 29 30 30 31 31 31 31 31 31 31 31 30 30 31 31
39 38 38 38 37 36 35 34 33 32 32 32 30 29 29 30 29 29 28 26 23 22 21 23 24 26 28 29 30 30 31 28 30 33 32 32 32 31 31 31 30 29 27 26
36 33 36 34 34 33 32 32 31 30 30 29 27 28 29 27 26 23 22 22 22 23 24 24 24 27 28 30 30 30 31 32 29 32 32 31 31 30 30 29 28 28 26 24
39 37 37 36 34 32 30 28 28 28 26 25 23 22 21 21 20 20 20 22 23 24 24 25 26 28 29 30 31 31 30 29 29 29 29 28 29 30 29 28 28 28 28 26
36 34 33 32 32 30 28 25 23 22 21 22 21 20 20 19 20 21 22 21 21 22 22 26 26 28 29 29 30 32 30 29 29 28 28 27 27 28 27 27 26 26 27 26
31 31 29 27 26 25 21 22 23 21 22 21 20 20 19 18 18 20 22 21 21 21 24 25 27 27 28 29 29 31 30 29 29 27 26 26 25 25 25 23 25 25 25 25
26 26 23 21 19 19 19 20 21 20 19 19 19 17 17 18 18 19 22 23 22 21 25 25 26 25 29 28 30 29 29 28 28 27 26 25 25 24 23 23 23 23 23 23
21 19 18 19 19 18 19 21 20 18 18 17 16 17 19 21 21 19 18 19 24 19 25 25 24 20 25 26 28 27 27 27 26 26 25 25 24 23 23 22 22 22 21 21
20 20 19 18 20 20 19 19 18 19 18 18 17 19 21 22 23 21 20 22 24 21 24 23 18 18 23 25 25 25 25 25 25 25 24 24 23 23 22 22 21 21 21 21
21 21 21 21 19 21 20 20 22 19 18 19 17 16 22 23 22 23 24 21 18 19 20 18 17 18 22 23 23 23 23 23 23 23 24 22 23 22 21 21 20 21 20 19
22 22 21 20 22 25 23 22 21 21 21 22 21 22 22 24 21 21 21 21 19 21 21 17 17 19 21 21 21 21 21 21 21 22 22 21 21 21 20 20 19 19 19 19
23 26 26 25 27 27 27 26 26 25 25 23 24 24 24 24 24 23 22 19 20 19 20 20 19 20 20 20 20 19 20 20 20 20 20 20 20 19 19 18 19 19 19 18
25 24 25 25 26 27 27 26 25 23 24 25 23 24 24 24 22 22 19 21 21 20 20 19 19 18 19 19 19 19 19 19 17 19 19 19 19 18 18 17 17 18 17 17